Temp
12 12 12 12 12 11 12 12 12 11 11 11 10 10 10 10 9 9 8 8 9 9 9 9 8 8 8 8 8 8 8 8 8 8 8 8 8 8 8 8 8 8 8
12 12 12 12 12 12 11 12 12 11 11 10 10 10 10 10 9 9 8 8 9 9 9 9 8 8 8 8 8 8 8 8 8 8 8 8 8 8 8 8 8 7 8
11 11 11 12 11 11 12 12 12 12 11 10 10 10 9 9 9 9 8 8 9 9 8 8 8 8 7 7 8 8 7 7 7 8 8 8 8 8 8 8 8 8 8
10 10 11 11 11 11 11 11 11 11 11 11 10 9 9 8 8 8 8 8 9 9 8 8 7 7 7 7 7 7 7 7 7 7 8 8 8 8 8 8 8 8 8
10 10 10 11 11 10 11 11 11 11 11 10 10 9 8 8 8 8 8 8 8 8 8 7 7 7 7 7 7 7 7 7 7 7 7 7 7 7 7 8 8 8 8
10 10 10 10 11 10 10 11 11 11 11 10 10 9 8 8 8 8 8 8 8 8 8 7 7 7 7 7 7 7 6 6 7 7 7 7 7 7 7 7 8 8 8
9 9 10 10 10 10 10 10 10 10 10 10 10 9 8 8 8 8 8 8 8 8 7 7 7 7 6 6 6 6 6 6 6 7 7 7 7 7 7 7 7 7 7
8 8 9 9 9 9 9 9 10 10 10 10 10 9 8 8 7 7 7 7 8 8 7 7 6 6 6 6 6 6 6 6 6 6 6 6 6 6 7 7 7 7 7
7 8 8 8 8 9 9 9 9 9 10 10 10 9 8 8 7 7 7 7 7 7 7 7 6 6 5 5 6 6 6 6 6 6 6 6 6 7 7 7 7 7 7
7 7 8 8 8 7 8 9 9 9 9 9 9 10 8 7 7 7 7 7 7 7 7 6 6 5 5 5 5 5 6 6 6 6 6 6 6 6 7 7 7 7 7
6 7 7 7 7 7 7 8 8 8 9 9 9 9 8 7 7 7 7 7 7 7 6 6 5 5 5 5 5 5 6 6 6 6 6 6 6 7 6 6 6 6 7
5 6 6 6 6 6 7 7 8 8 8 8 9 8 8 7 7 7 6 7 7 6 6 6 5 5 5 5 5 5 6 6 6 6 6 6 6 6 6 6 6 6 7
4 4 5 5 5 5 6 6 7 7 8 8 8 7 7 6 7 7 6 7 7 6 6 6 5 5 5 5 5 5 6 6 6 6 6 6 6 6 6 6 6 7 7
4 4 4 5 5 5 5 5 5 6 7 7 7 6 6 6 7 7 7 7 7 6 6 5 5 5 5 5 5 5 5 6 5 6 6 6 6 6 6 6 6 6 6
3 4 4 4 4 5 4 4 5 5 6 7 6 6 6 6 7 6 6 6 6 6 5 5 5 5 5 5 5 5 5 5 5 5 5 6 6 6 6 6 6 6 6
3 3 3 3 3 4 4 4 4 4 5 6 6 6 6 6 6 6 6 6 6 5 5 5 5 4 5 5 5 5 5 5 5 5 5 6 6 6 6 6 6 6 6
3 3 3 3 3 3 4 3 4 4 4 4 6 6 5 6 6 6 5 4 5 5 5 5 5 5 5 5 5 5 5 5 5 6 6 6 6 6 6 6 6 6 6
2 3 2 2 3 3 3 3 3 4 4 4 4 5 5 5 6 5 5 5 5 5 5 5 5 5 4 5 5 5 5 5 5 6 6 6 6 6 6 5 6 5 5
1 2 2 2 3 3 3 3 3 3 4 4 4 4 5 4 4 5 4 5 5 5 5 4 4 4 5 5 5 5 5 5 5 5 5 5 5 5 6 5 5 5 5
0 1 2 2 2 2 3 3 3 4 4 4 5 4 4 5 3 4 4 4 4 4 4 4 4 4 5 5 5 5 5 5 5 5 5 6 5 5 5 4 5 5 5
-0 0 1 1 2 3 3 3 3 4 4 4 4 4 2 3 3 3 4 4 4 4 4 4 4 4 4 4 5 5 5 5 4 4 5 5 4 4 4 4 4 4 4
-0 0 1 2 2 3 3 4 3 4 4 4 4 5 3 2 2 3 4 4 4 4 4 4 4 4 4 4 4 3 4 4 4 3 4 3 3 3 4 3 2 2 2
0 0 2 2 3 3 3 3 2 3 3 4 3 3 3 1 2 3 4 4 4 4 4 4 4 4 4 3 3 3 3 3 3 4 3 4 3 3 3 2 2 2 2
1 1 2 2 2 2 2 2 2 3 3 3 3 3 2 2 2 2 3 4 4 3 3 3 4 4 3 3 3 2 2 2 3 3 3 3 3 2 2 2 1 1 2
1 1 2 2 1 2 2 2 2 2 1 3 3 2 1 1 2 2 3 3 3 3 3 2 3 2 2 2 2 3 3 2 3 3 2 2 2 2 2 2 1 2 2
0 1 1 0 2 2 2 2 2 2 2 1 2 2 1 1 1 0 1 1 2 2 3 2 1 1 2 2 3 2 2 2 1 3 3 2 2 2 2 2 2 1 1
Height
3145 3146 3148 3149 3150 3151 3153 3153 3153 3153 3154 3154 3155 3156 3158 3159 3160 3162 3163 3164 3165 3165 3165 3166 3166 3166 3166 3166 3167 3167 3167 3168 3168 3168 3167 3168 3168 3168 3167 3167 3167 3167 3167
3142 3143 3145 3147 3149 3150 3151 3152 3152 3153 3153 3154 3155 3156 3157 3159 3161 3162 3163 3165 3165 3166 3166 3166 3166 3166 3166 3167 3167 3168 3169 3169 3169 3169 3169 3169 3169 3169 3169 3168 3168 3168 3168
3140 3141 3143 3145 3147 3149 3150 3151 3151 3151 3152 3153 3153 3155 3157 3159 3161 3162 3163 3165 3166 3166 3167 3167 3167 3167 3167 3167 3168 3169 3169 3169 3170 3170 3171 3171 3170 3170 3170 3170 3169 3169 3169
3139 3139 3140 3142 3144 3146 3148 3149 3150 3150 3151 3152 3153 3154 3156 3158 3160 3162 3164 3165 3166 3167 3167 3167 3167 3167 3167 3168 3169 3169 3169 3170 3170 3171 3172 3172 3171 3171 3171 3171 3171 3170 3170
3136 3137 3138 3139 3141 3143 3145 3147 3148 3149 3149 3150 3152 3154 3156 3158 3160 3162 3164 3165 3166 3167 3167 3167 3167 3168 3168 3169 3170 3170 3170 3171 3171 3172 3172 3172 3172 3172 3172 3172 3172 3171 3171
3134 3135 3135 3137 3138 3140 3142 3144 3146 3147 3149 3150 3151 3153 3155 3158 3160 3162 3164 3165 3166 3166 3167 3167 3168 3168 3169 3170 3170 3172 3172 3172 3173 3173 3173 3173 3173 3173 3172 3172 3172 3172 3171
3131 3132 3134 3135 3136 3138 3140 3142 3143 3145 3146 3149 3150 3152 3154 3157 3159 3161 3164 3165 3166 3166 3167 3168 3168 3169 3169 3170 3171 3172 3172 3173 3173 3174 3174 3174 3174 3173 3173 3172 3172 3172 3172
3127 3130 3131 3133 3135 3136 3138 3140 3141 3142 3144 3146 3148 3150 3153 3155 3157 3160 3162 3164 3165 3166 3167 3168 3168 3169 3170 3171 3172 3173 3172 3173 3173 3174 3174 3174 3174 3174 3174 3173 3173 3172 3172
3121 3124 3127 3130 3132 3134 3135 3137 3139 3140 3141 3143 3146 3148 3151 3154 3156 3159 3161 3162 3164 3165 3167 3168 3169 3169 3170 3171 3172 3173 3173 3173 3174 3174 3174 3174 3174 3174 3174 3174 3173 3173 3172
3116 3118 3121 3125 3128 3131 3134 3134 3136 3137 3139 3140 3143 3146 3149 3151 3153 3157 3160 3161 3163 3164 3166 3167 3168 3169 3170 3171 3172 3172 3174 3174 3174 3174 3174 3174 3174 3174 3173 3173 3173 3172 3171
3110 3113 3116 3120 3123 3126 3129 3131 3133 3134 3136 3138 3139 3142 3146 3149 3151 3155 3158 3160 3162 3164 3165 3167 3168 3169 3170 3171 3172 3172 3173 3173 3173 3173 3173 3173 3173 3173 3173 3172 3172 3171 3171
3106 3110 3112 3114 3117 3119 3123 3127 3130 3132 3133 3135 3136 3139 3142 3147 3150 3154 3157 3159 3161 3163 3164 3165 3167 3168 3170 3170 3171 3172 3172 3173 3172 3172 3172 3172 3172 3172 3172 3171 3171 3171 3170
3103 3104 3107 3109 3113 3114 3118 3121 3125 3128 3130 3132 3134 3136 3140 3143 3147 3151 3154 3156 3159 3161 3162 3164 3166 3168 3168 3169 3170 3171 3171 3171 3171 3171 3171 3172 3171 3171 3170 3170 3170 3170 3169
3094 3100 3103 3105 3106 3110 3113 3116 3121 3123 3126 3129 3132 3134 3137 3140 3144 3148 3151 3155 3157 3159 3161 3163 3164 3166 3168 3168 3169 3169 3169 3170 3170 3170 3169 3170 3170 3169 3169 3169 3169 3168 3167
3087 3091 3097 3100 3104 3105 3108 3112 3116 3119 3123 3126 3128 3132 3135 3137 3141 3144 3147 3151 3155 3158 3159 3161 3163 3165 3166 3167 3168 3168 3168 3168 3168 3168 3168 3168 3169 3168 3168 3167 3167 3166 3165
3080 3085 3087 3093 3096 3101 3103 3106 3109 3114 3118 3121 3123 3126 3131 3134 3136 3138 3144 3149 3152 3156 3158 3160 3161 3163 3164 3165 3166 3167 3166 3167 3167 3167 3167 3166 3167 3166 3167 3166 3164 3164 3163
3072 3077 3081 3085 3090 3093 3098 3101 3104 3107 3112 3116 3119 3122 3125 3129 3131 3133 3138 3144 3149 3153 3156 3158 3159 3161 3162 3163 3164 3165 3165 3165 3164 3164 3165 3165 3165 3163 3164 3163 3162 3161 3160
3063 3069 3075 3079 3083 3086 3090 3095 3099 3103 3106 3111 3113 3115 3117 3122 3127 3129 3132 3141 3145 3149 3152 3155 3157 3158 3159 3161 3162 3162 3162 3162 3161 3161 3161 3161 3162 3161 3160 3160 3159 3158 3156
3056 3062 3067 3071 3077 3081 3083 3087 3092 3096 3100 3103 3108 3110 3108 3113 3120 3124 3126 3131 3141 3145 3149 3152 3154 3155 3156 3158 3158 3159 3159 3158 3158 3158 3158 3157 3156 3157 3157 3155 3155 3154 3152
3046 3053 3058 3063 3068 3073 3076 3079 3082 3085 3089 3093 3096 3103 3104 3106 3113 3119 3122 3130 3135 3140 3145 3147 3150 3152 3153 3154 3154 3155 3154 3154 3154 3154 3153 3155 3153 3151 3151 3150 3150 3149 3148
3037 3044 3051 3054 3060 3065 3068 3072 3073 3075 3081 3084 3087 3094 3099 3101 3107 3114 3116 3124 3129 3135 3141 3144 3145 3147 3148 3149 3150 3150 3150 3150 3151 3150 3149 3149 3149 3148 3146 3144 3144 3145 3144
3030 3037 3042 3047 3052 3056 3059 3063 3067 3069 3071 3074 3077 3083 3087 3094 3101 3108 3114 3118 3125 3131 3134 3137 3139 3142 3143 3144 3145 3144 3145 3145 3144 3143 3144 3142 3141 3140 3141 3140 3139 3139 3138
3023 3030 3034 3037 3041 3048 3048 3055 3058 3060 3062 3066 3068 3073 3080 3089 3097 3103 3109 3115 3121 3125 3128 3131 3134 3137 3137 3139 3139 3138 3137 3137 3138 3139 3138 3136 3133 3133 3134 3132 3133 3133 3133
3019 3023 3026 3030 3034 3039 3039 3047 3049 3054 3055 3056 3065 3071 3076 3086 3091 3098 3104 3111 3115 3119 3123 3126 3129 3131 3132 3133 3131 3132 3132 3133 3132 3130 3131 3128 3126 3125 3127 3127 3126 3127 3127
3010 3014 3018 3025 3027 3031 3035 3039 3045 3051 3053 3058 3060 3066 3072 3079 3087 3095 3099 3103 3108 3112 3115 3117 3118 3121 3122 3123 3124 3127 3126 3126 3125 3124 3117 3120 3119 3118 3119 3121 3121 3120 3120
3003 3006 3011 3014 3019 3025 3031 3036 3043 3046 3051 3055 3058 3062 3069 3074 3082 3088 3094 3097 3103 3105 3108 3111 3112 3114 3116 3118 3119 3119 3119 3118 3116 3118 3115 3115 3115 3114 3114 3113 3113 3114 3114
Wind_Speed
16 16 13 6 5 8 11 10 10 10 11 13 13 12 13 13 12 11 10 8 6 5 4 3 5 6 6 6 5 5 6 6 7 7 9 10 9 9 9 9 10 9 9
18 17 14 12 12 9 11 12 11 11 11 13 14 13 13 12 12 12 11 8 7 6 5 5 6 5 6 6 6 6 7 7 8 9 10 11 10 10 9 9 10 10 9
15 15 13 12 13 13 12 13 12 12 12 13 14 14 13 13 13 13 11 8 7 5 5 5 5 6 7 6 7 8 10 11 11 10 10 10 10 9 9 9 9 9 9
10 10 10 11 15 17 14 14 14 13 12 13 14 15 15 15 14 14 11 9 7 5 7 6 6 7 7 7 9 11 11 11 11 10 9 9 9 9 9 9 9 9 9
12 12 12 12 15 19 16 15 15 14 14 14 15 16 17 17 16 14 11 9 8 8 9 8 8 8 9 9 10 11 10 9 10 9 9 9 9 8 9 8 8 8 8
16 15 11 14 16 18 18 17 16 15 15 16 17 18 18 18 17 15 12 11 9 10 9 9 9 9 10 10 10 10 9 9 9 8 8 7 7 7 7 7 6 6 7
17 17 19 13 12 17 19 19 18 17 17 18 19 19 20 20 20 17 14 13 11 11 10 10 10 10 11 10 9 9 8 8 6 6 6 5 5 5 4 4 4 5 5
21 23 21 19 17 16 19 20 20 18 18 18 20 21 22 21 21 18 16 14 13 13 12 12 12 11 10 10 9 9 7 6 6 5 5 4 4 3 2 2 3 4 5
27 25 29 27 19 23 22 21 21 20 20 20 21 23 24 24 23 20 18 16 15 14 13 13 13 12 10 9 8 7 7 5 5 4 4 4 3 2 1 1 3 4 5
28 26 29 30 30 20 22 22 22 22 22 22 24 25 27 26 25 22 20 18 18 17 16 15 14 12 10 9 8 6 5 4 4 4 4 5 4 3 3 3 3 4 6
26 26 31 30 29 32 24 25 24 24 23 25 26 28 29 30 27 23 21 20 19 18 17 16 15 13 10 8 7 6 5 4 5 6 5 6 5 6 5 5 4 5 6
27 26 26 26 28 30 34 27 26 25 25 26 29 31 32 31 26 24 22 22 21 20 19 18 16 13 11 8 6 5 5 4 5 6 6 6 6 6 6 5 6 6 7
26 26 23 24 24 28 28 30 27 27 25 26 30 32 31 31 29 27 24 24 24 23 21 19 16 14 11 8 7 6 5 5 5 5 6 6 6 6 6 6 7 7 8
31 29 27 26 26 27 32 32 30 30 28 26 32 33 34 33 30 30 24 23 25 24 22 20 18 14 11 9 8 7 7 6 5 6 5 5 6 6 6 6 7 8 9
35 29 25 29 26 30 27 31 30 30 31 32 32 33 35 33 33 33 29 28 26 25 24 21 18 15 12 10 9 8 9 7 6 5 5 5 6 6 7 7 8 8 9
39 35 33 29 30 32 31 30 28 31 29 35 38 38 35 33 33 33 30 30 29 27 25 23 19 16 14 12 10 11 10 9 7 6 7 7 8 8 8 9 9 9 10
42 40 39 36 35 34 34 36 37 36 36 39 41 38 39 36 38 43 37 30 32 30 28 25 22 19 15 13 13 13 12 12 11 11 10 10 9 7 10 11 11 12 12
39 43 41 38 40 39 38 38 38 36 33 37 41 41 42 42 43 51 34 34 33 32 30 27 24 21 17 17 15 14 13 14 14 15 13 13 15 12 11 14 14 15 16
44 40 44 39 42 48 47 44 43 44 42 46 45 46 56 39 43 37 29 27 39 34 32 30 26 23 20 18 16 15 15 16 16 18 17 17 17 17 17 17 18 19 19
42 42 42 43 40 45 49 45 49 50 47 51 48 44 52 57 47 41 33 37 37 36 35 32 28 25 22 20 19 18 17 18 18 20 22 22 20 22 22 19 21 21 20
35 38 40 44 41 42 42 45 46 50 52 49 51 52 45 42 40 38 36 36 38 38 35 32 29 26 23 21 20 20 19 20 19 20 24 24 24 28 27 22 20 22 22
34 35 38 45 46 51 56 52 46 47 46 42 46 58 54 58 41 38 37 38 40 38 36 33 31 27 25 24 20 19 20 22 18 20 28 28 33 36 30 22 20 23 25
36 37 38 43 48 50 49 43 43 38 37 38 38 44 48 44 37 37 39 40 39 37 37 33 30 28 29 26 23 20 19 21 23 31 36 35 35 32 23 22 21 25 29
36 43 49 45 44 35 35 42 38 35 35 43 36 44 42 35 35 33 34 35 37 36 32 30 30 28 29 29 32 31 31 32 35 42 40 33 33 32 31 24 22 25 28
32 37 46 41 44 32 32 38 39 37 26 33 39 40 43 40 41 37 37 38 38 38 36 34 34 33 29 32 38 37 41 38 30 31 29 27 25 26 30 26 27 28 29
30 36 47 24 28 36 37 33 32 31 39 30 38 39 45 46 41 44 42 37 39 39 39 39 26 29 33 33 35 39 41 44 31 34 14 19 21 22 28 28 28 27 27
Wind_Direction
247 243 265 300 301 272 274 269 255 239 229 231 227 227 222 214 205 194 184 194 200 208 212 208 147 135 136 131 131 125 116 114 114 116 112 105 102 97 90 85 80 79 78
232 243 244 261 279 290 275 270 259 248 234 229 229 222 216 207 197 191 184 197 208 219 205 177 154 148 141 134 131 125 117 115 113 111 110 107 102 93 90 87 83 82 80
217 228 237 251 271 276 272 261 255 249 239 229 222 215 210 201 196 193 190 202 219 231 187 173 162 153 143 140 133 125 122 119 115 111 110 105 97 93 89 84 78 73 66
218 217 230 251 259 264 256 251 250 246 241 233 221 210 203 199 199 197 199 201 215 218 190 175 169 165 150 145 137 131 131 128 123 118 114 109 104 98 90 81 77 72 66
249 237 243 245 252 247 239 245 241 241 239 232 222 212 207 201 201 199 204 211 215 209 196 181 177 171 155 149 142 136 132 131 122 121 119 113 106 95 87 81 75 68 58
245 246 239 246 248 245 235 238 237 237 237 231 225 210 208 205 205 200 205 217 219 211 202 188 180 175 159 151 147 140 141 140 135 135 129 121 111 102 95 90 80 67 56
248 231 238 236 246 240 238 235 232 229 230 230 224 215 206 208 207 202 207 217 221 210 202 192 183 173 162 156 154 145 150 147 141 143 138 133 125 115 104 86 70 52 37
253 248 238 244 250 246 239 238 234 227 227 229 225 216 204 209 211 204 207 213 218 208 201 194 184 173 169 165 162 156 162 160 157 162 160 158 152 144 102 47 25 23 19
247 252 252 259 261 254 243 237 238 235 225 223 224 218 203 208 213 208 206 211 210 204 202 196 186 181 178 176 175 176 171 178 185 192 196 194 198 209 280 331 345 351 352
249 252 255 251 249 253 250 242 240 235 231 221 218 220 203 208 214 209 209 212 207 202 200 195 188 187 189 191 188 190 193 193 220 216 229 235 241 249 271 299 316 333 342
242 249 250 251 249 245 251 249 245 238 229 226 217 211 207 211 214 210 212 215 209 204 199 195 192 193 195 204 209 212 218 205 234 242 249 251 251 257 265 281 295 313 329
243 241 253 254 244 242 237 241 243 241 234 228 220 211 206 213 217 210 213 215 211 205 203 197 195 196 203 213 224 233 245 246 248 260 267 261 257 259 267 279 294 308 320
238 249 244 253 249 235 229 237 239 242 239 232 219 212 208 213 219 212 214 214 213 210 205 202 200 202 207 219 231 242 248 245 252 258 266 274 270 270 278 286 293 305 312
221 240 245 245 249 243 235 234 239 242 237 232 224 211 212 215 216 221 220 224 217 213 207 202 203 205 213 224 237 241 253 251 257 270 273 274 273 277 280 289 297 302 309
219 218 234 245 241 242 241 236 237 236 240 232 220 219 221 220 220 217 213 213 217 213 209 207 207 208 214 227 241 250 256 257 255 263 276 278 282 286 288 294 293 295 301
225 220 224 232 237 243 243 234 238 232 231 235 214 219 224 225 216 213 210 214 211 214 211 209 209 212 219 227 241 247 248 257 261 266 266 273 279 283 290 288 286 291 295
227 225 222 229 235 239 243 247 246 252 247 231 237 222 229 221 223 219 211 205 211 211 212 211 214 217 227 239 248 253 256 256 258 259 267 282 270 270 280 285 283 285 289
230 227 228 224 230 236 238 241 246 250 254 254 224 215 224 215 226 232 189 207 215 215 214 215 219 223 233 241 249 254 258 262 264 266 266 270 278 282 283 281 279 279 281
227 225 225 228 227 235 240 241 243 247 251 253 251 222 229 213 224 217 218 216 215 215 216 218 223 229 237 245 252 257 260 264 272 277 282 277 278 281 277 273 274 275 278
229 225 225 228 234 235 240 245 245 245 247 251 249 240 222 228 229 236 212 213 213 215 217 221 225 233 241 247 253 259 263 268 274 281 284 280 285 284 283 276 275 274 278
235 233 233 233 235 236 238 243 247 252 251 254 253 235 222 230 230 233 227 213 214 217 220 226 230 236 243 249 255 261 264 272 280 292 293 294 302 296 283 278 277 279 275
238 237 233 238 245 246 250 253 254 252 251 248 237 232 231 224 220 229 227 216 216 217 221 226 232 237 242 245 249 251 267 270 280 312 303 295 300 299 283 279 277 273 270
237 239 239 243 248 247 245 243 240 239 223 223 213 210 214 207 212 217 214 212 215 218 223 228 233 238 240 242 244 246 258 263 275 272 303 295 285 284 263 263 269 267 273
240 239 242 239 250 225 227 223 228 205 205 212 205 216 202 206 204 201 207 211 214 218 224 228 236 240 246 245 245 252 259 275 276 272 291 277 273 266 263 254 264 273 286
218 226 235 234 225 204 204 215 208 220 222 211 206 202 191 194 198 203 205 210 214 216 220 223 230 231 239 252 265 267 272 273 287 283 282 258 260 247 250 262 269 274 277
217 224 225 241 211 208 202 204 212 206 205 232 198 200 202 197 203 206 207 210 215 216 218 225 223 239 252 259 263 272 271 273 256 263 283 260 254 248 257 253 275 279 279